Regional Weather Roundup
Issued by NWS Charleston, WV

Home | Current Version | Previous Version | Text Only | Print | Product List | Glossary Off
Versions: 1 2 3 4 5 6 7 8 9 10 11 12 13 14 15 16 17 18 19 20 21 22 23 24 25 26 27 28 29 30 31 32 33 34 35 36 37 38 39 40 41 42 43 44 45 46 47 48 49 50

000
ASUS41 KRLX 250710
RWRRLX
West Virginia Regional Weather Roundup
National Weather Service Charleston WV
200 AM EST THU DEC 25 2014

Note: "fair" indicates few or no clouds below 12,000 feet with no
significant weather and/or obstructions to visibility.

WVZ003-250800-
Northern Panhandle of West Virginia

CITY           SKY/WX    TMP DP  RH WIND       PRES   REMARKS
WHEELING       CLOUDY    40  34  79 W12G22    29.68R
$$

WVZ009-250800-
Northwest West Virginia

CITY           SKY/WX    TMP DP  RH WIND       PRES   REMARKS
PARKERSBURG    CLOUDY    42  35  76 SW10      29.76S
$$

WVZ006-250800-
Western West Virginia

CITY           SKY/WX    TMP DP  RH WIND       PRES   REMARKS
HUNTINGTON     MOCLDY    41  36  82 SW9       29.78R
$$

WVZ015-250800-
West Central West Virginia

CITY           SKY/WX    TMP DP  RH WIND       PRES   REMARKS
CHARLESTON     CLOUDY    43  37  79 SW7       29.78R
$$

WVZ022-031-250800-
North Central West Virginia

CITY           SKY/WX    TMP DP  RH WIND       PRES   REMARKS
CLARKSBURG     CLOUDY    42  37  82 W12       29.72R
MORGANTOWN     CLOUDY    43  35  73 SW9       29.71S
$$

WVZ025-035-042-045-250800-
Southern West Virginia

CITY           SKY/WX    TMP DP  RH WIND       PRES   REMARKS
BECKLEY        LGT RAIN  37  34  89 W7        29.75S
LOGAN          CLOUDY    41  37  87 SW9       29.77R
BLUEFIELD      CLOUDY    40  34  79 W9G23     29.72F
LEWISBURG      CLOUDY    42  38  83 W8        29.76R
$$

WVZ047-250800-
Northern Mountains of West Virginia

CITY           SKY/WX    TMP DP  RH WIND       PRES   REMARKS
ELKINS         LGT RAIN  40  37  89 VRB7      29.72F
$$

WVZ052-250800-
Eastern Panhandle of West Virginia

CITY           SKY/WX    TMP DP  RH WIND       PRES   REMARKS
MARTINSBURG    LGT RAIN  51  40  65 W20G26    29.65R
PETERSBURG     CLOUDY    48  34  57 W13       29.70R
$$


USA.gov is the U.S. government's official web portal to all federal, state and local government web resources and services.